OneWeb SL0572

operational
NORAD ID: 55151 Int'l Des: 2023-004 Owner: ONEWEBN Country: UK Constellation: oneweb
LEOCIRCULARPOLARONEWEB_TYPE

OneWeb SL0572について

説明を読み込み中...

リアルタイム位置

3D地球を読み込み中...

次回通過

高度履歴

Altitude vs Time

uPlot chart will show altitude changes over time

軌道要素

1 55151U 23004M 25351.65221620 -.00000009 00000-0 -55924-4 0 9996
2 55151 87.9112 41.9643 0001567 97.1687 262.9623 13.17647943143576
Epoch: Dec 17, 2025 • Age: 16 hours

現在のステータス

高度 1221.6 km
速度 7.24 km/s
衛星直下点 -72.03°S, 167.12°W
打ち上げ日 Jan 10, 2023
運用期間 2.9 years
タイプ internet

技術仕様

分類 Payload
質量 148.00 kg
乾燥質量 140.00 kg
総質量 148.00 kg
長さ 1.30 m
直径 1.00 m
スパン 5.00 m
形状 Trapezoid+2 pan
製造者 ONEWUS
バスタイプ ARROW
フェーズステータス In Orbit
所有者/国 ONEWEBN/UK

大規模コンステレーション

Loading constellations...